Notices

What's New in latest Release from April 7th, 2021:

- Updated Glossary, including Speed of Maximum Gust, and Total Hourly Precipitation

- Updated national and regional climate services offices contacts and prices information

- Addition of station inventory lists for 1981-2010, 1971-2000, and 1961-1990 Normals.

If you haven't already, please take our survey and provide feedback about our website: https://eccc.sondage-survey.ca/f/LanguageSelection.aspx?s=442ca660-fcf1-47c0-95a9-59707d6fd709

Hourly Data Report for May 16, 2020

MIRAMICHI RCS
NEW BRUNSWICK
Current Station Operator: ECCC - MSC

47°00'34.000" N
65°27'54.000" W
33.00 m
8100989
71744
ACQ

Download Data

Hourly Data (May 2020)
Hourly Data Report for May 16, 2020
TIME
LST
Temp Definition
°C
Dew Point Definition
°C
Rel Hum Definition
%
Precip. Amount Definition
mm

Wind Dir Definition
10's deg

Wind Spd Definition
km/h
Visibility Definition
km
Stn Press Definition
kPa
Hmdx Definition


Wind Chill Definition


Weather Definition


00:00 6.3 2.7 78 LegendMM 5 12   100.80     LegendNANA
01:00 6.3 1.8 73 LegendMM 3 14   100.80     LegendNANA
02:00 6.0 1.9 75 LegendMM 4 9   100.74     LegendNANA
03:00 5.6 1.9 77 LegendMM 2 6   100.70     LegendNANA
04:00 5.2 1.6 78 LegendMM 36 5   100.72     LegendNANA
05:00 5.1 1.1 75 LegendMM 34 4   100.78     LegendNANA
06:00 4.9 1.3 77 LegendMM 34 4   100.82     LegendNANA
07:00 5.5 1.3 75 LegendMM 1 5   100.83     LegendNANA
08:00 5.8 2.1 77 LegendMM 2 6   100.85     LegendNANA
09:00 6.5 1.8 72 LegendMM 3 9   100.95     LegendNANA
10:00 7.2 1.3 66 LegendMM 5 11   101.06     LegendNANA
11:00 8.2 -0.7 53 LegendMM 5 11   101.13     LegendNANA
12:00 11.3 -0.8 43 LegendMM 9 14   101.16     LegendNANA
13:00 12.3 -0.5 41 LegendMM 9 11   101.20     LegendNANA
14:00 13.2 -0.4 39 LegendMM 9 12   101.22     LegendNANA
15:00 14.0 0.1 38 LegendMM 7 14   101.25     LegendNANA
16:00 14.4 0.0 37 LegendMM 10 11   101.28     LegendNANA
17:00 15.1 0.1 36 LegendMM 9 10   101.30     LegendNANA
18:00 15.2 1.6 40 LegendMM 9 14   101.32     LegendNANA
19:00 13.5 2.7 48 LegendMM 8 15   101.37     LegendNANA
20:00 10.4 0.5 50 LegendMM 13 11   101.46     LegendNANA
21:00 8.6 0.1 55 LegendMM 14 9   101.53     LegendNANA
22:00 7.0 -0.2 60 LegendMM 9 3   101.55     LegendNANA
23:00 5.5 -0.5 65 LegendMM 7 4   101.57     LegendNANA

Notes on Data Quality.

Legend

  • E = Estimated
  • M = Missing
  • NA = Not Available*
  • [empty] = Indicates an unobserved value
Date modified: